Lake Charles Regional, LA

10:12 AM CDT on May 27, 2017 (GMT -0500)
Lake Charles Regional

Weather History for KLCH - June, 2013

Change the Weather History Date:

Monday, June 3, 2013

  Actual Average Record
Temperature  
Mean Temperature 82 °F 79 °F  
Max Temperature 91 °F 88 °F 98 °F (1911)
Min Temperature 72 °F 71 °F 56 °F (1903)
Degree Days  
Heating Degree Days 0 0  
Month to date heating degree days 0 0  
Since 1 June heating degree days 0 0  
Since 1 July heating degree days 1267 1490  
Cooling Degree Days 17 14  
Month to date cooling degree days 50 42  
Year to date cooling degree days 535 580  
Since 1 June cooling degree days 50 42  
Growing Degree Days 32 (Base 50)    
Moisture  
Dew Point 70 °F    
Average Humidity 70    
Maximum Humidity 93    
Minimum Humidity 47    
Precipitation  
Precipitation 0.00 in 0.20 in 5.47 in (1950)
Month to date precipitation 0.59 0.60  
Year to date precipitation 30.11 21.48  
Snow  
Snow 0.00 in 0.00 in 0.00 in ()
Month to date snowfall 0.0 0.0  
Since 1 June snowfall 0.0 0.0  
Since 1 July snowfall 0.0 0.1  
Snow Depth 0.00 in    
Sea Level Pressure  
Sea Level Pressure 29.92 in    
Wind  
Wind Speed 5 mph (NNE)    
Max Wind Speed 13 mph    
Max Gust Speed 16 mph    
Visibility 10 miles    
Events      
T = Trace of Precipitation, MM = Missing Value Source: NWS Daily Summary

Daily Weather History Graph

Daily Weather History Graph

Search for Another Location

Airport or City:

Trip Planner

Search our weather history database for the weather conditions in past years. The results will help you decide how hot, cold, wet, or windy it might be!

Date:

Astronomy

Jun. 03, 2013 Rise Set
Actual Time 6:11 AM CDT 8:10 PM CDT
Civil Twilight 5:44 AM CDT 8:38 PM CDT
Nautical Twilight 5:11 AM CDT 9:11 PM CDT
Astronomical Twilight 4:36 AM CDT 9:46 PM CDT
Moon 2:51 AM CDT (6/3) 3:57 PM CDT (6/3)
Length of Visible Light 14h 53m
Length of Day
13h 59m
Waning Crescent, 22% of the Moon is Illuminated
Jun 3
Waning Crescent
Jun 8
New
Jun 16
First Quarter
Jun 23
Full
Jun 29
Last Quarter

Hourly Weather History & Observations

Time (CDT) Temp. Heat Index Dew Point Humidity Pressure Visibility Wind Dir Wind Speed Gust Speed Precip Events Conditions
12:53 AM 73.9 °F - 70.0 °F 87% 29.93 in 10.0 mi NNE 5.8 mph - N/A   Scattered Clouds
1:53 AM 75.0 °F - 70.0 °F 84% 29.92 in 10.0 mi NNE 5.8 mph - N/A   Mostly Cloudy
2:53 AM 73.9 °F - 70.0 °F 87% 29.93 in 10.0 mi North 4.6 mph - N/A   Clear
3:53 AM 73.0 °F - 70.0 °F 90% 29.94 in 10.0 mi North 5.8 mph - N/A   Partly Cloudy
4:53 AM 73.0 °F - 70.0 °F 90% 29.93 in 10.0 mi North 4.6 mph - N/A   Clear
5:53 AM 72.0 °F - 70.0 °F 93% 29.94 in 10.0 mi North 4.6 mph - N/A   Clear
6:53 AM 73.0 °F - 70.0 °F 90% 29.95 in 10.0 mi North 4.6 mph - N/A   Clear
7:53 AM 75.9 °F - 70.0 °F 82% 29.96 in 10.0 mi NNE 6.9 mph - N/A   Clear
8:53 AM 78.1 °F - 71.1 °F 79% 29.96 in 10.0 mi NE 5.8 mph - N/A   Clear
9:53 AM 82.0 °F 86.7 °F 72.0 °F 71% 29.96 in 10.0 mi NE 6.9 mph - N/A   Partly Cloudy
10:40 AM 82.4 °F 87.2 °F 71.6 °F 70% 29.93 in 10.0 mi NNE 5.8 mph - N/A   Mostly Cloudy
10:53 AM 84.0 °F 88.4 °F 70.0 °F 63% 29.95 in 10.0 mi NNE 4.6 mph - N/A   Partly Cloudy
11:53 AM 84.9 °F 88.8 °F 69.1 °F 59% 29.95 in 10.0 mi NNE 3.5 mph - N/A   Overcast
12:53 PM 88.0 °F 90.7 °F 66.9 °F 49% 29.93 in 10.0 mi Variable 3.5 mph - N/A   Scattered Clouds
1:53 PM 88.0 °F 92.1 °F 69.1 °F 53% 29.91 in 10.0 mi NNE 9.2 mph - N/A   Mostly Cloudy
2:53 PM 90.0 °F 94.5 °F 69.1 °F 50% 29.89 in 10.0 mi Variable 4.6 mph - N/A   Partly Cloudy
3:53 PM 90.0 °F 92.8 °F 66.9 °F 46% 29.88 in 10.0 mi ENE 6.9 mph - N/A   Partly Cloudy
4:53 PM 90.0 °F 94.5 °F 69.1 °F 50% 29.87 in 10.0 mi ENE 10.4 mph - N/A   Partly Cloudy
5:53 PM 89.1 °F 92.1 °F 66.9 °F 48% 29.86 in 10.0 mi Variable 6.9 mph - N/A   Clear
6:53 PM 88.0 °F 91.4 °F 68.0 °F 51% 29.86 in 10.0 mi NE 9.2 mph - N/A   Clear
7:53 PM 82.9 °F 87.5 °F 71.1 °F 67% 29.88 in 10.0 mi NE 5.8 mph - N/A   Clear
8:53 PM 80.1 °F 83.2 °F 70.0 °F 71% 29.89 in 10.0 mi NE 3.5 mph - N/A   Clear
9:53 PM 75.9 °F - 72.0 °F 87% 29.91 in 10.0 mi Calm Calm - N/A   Scattered Clouds
10:53 PM 78.1 °F - 70.0 °F 76% 29.92 in 10.0 mi NE 4.6 mph - N/A   Clear
11:53 PM 77.0 °F - 71.1 °F 82% 29.92 in 10.0 mi ENE 3.5 mph - N/A   Clear